Time,TemperatureF,DewpointF,PressureIn,WindDirection,WindDirectionDegrees,WindSpeedMPH,WindSpeedGustMPH,Humidity,HourlyPrecipIn,Conditions,Clouds,dailyrainin,SolarRadiationWatts/m^2,SoftwareType,DateUTC
2013-02-23 00:12:00,37.0,37.0,30.43,NE,48,4.0,11.0,99,0.01,,,0.15,0.000000,,2013-02-23 05:12:00,
2013-02-23 00:23:00,37.0,37.0,30.43,NE,48,4.0,11.0,99,0.01,,,0.15,0.000000,,2013-02-23 05:23:00,
2013-02-23 00:33:00,37.0,37.0,30.43,NE,48,4.0,11.0,99,0.01,,,0.15,0.000000,,2013-02-23 05:33:00,
2013-02-23 00:42:00,37.0,37.0,30.43,NE,48,4.0,11.0,99,0.01,,,0.15,0.000000,,2013-02-23 05:42:00,
2013-02-23 01:11:00,36.0,36.0,30.40,NNE,21,4.0,11.0,99,0.00,,,0.15,0.000000,,2013-02-23 06:11:00,
2013-02-23 01:23:00,36.0,36.0,30.40,NNE,21,4.0,11.0,99,0.00,,,0.15,0.000000,,2013-02-23 06:23:00,
2013-02-23 01:32:00,36.0,36.0,30.40,NNE,21,4.0,11.0,99,0.00,,,0.15,0.000000,,2013-02-23 06:32:00,
2013-02-23 01:42:00,36.0,36.0,30.40,NNE,21,4.0,11.0,99,0.00,,,0.15,0.000000,,2013-02-23 06:42:00,
2013-02-23 02:11:00,36.0,36.0,30.40,North,10,3.0,11.0,99,0.00,,,0.15,0.000000,,2013-02-23 07:11:00,
2013-02-23 02:21:00,36.0,36.0,30.40,North,10,3.0,11.0,99,0.00,,,0.15,0.000000,,2013-02-23 07:21:00,
2013-02-23 02:32:00,36.0,36.0,30.40,North,10,3.0,11.0,99,0.00,,,0.15,0.000000,,2013-02-23 07:32:00,
2013-02-23 02:42:00,36.0,36.0,30.40,North,10,3.0,11.0,99,0.00,,,0.15,0.000000,,2013-02-23 07:42:00,
2013-02-23 03:11:00,36.0,36.0,30.36,SSW,198,3.0,9.0,99,0.01,,,0.16,0.000000,,2013-02-23 08:11:00,
2013-02-23 03:21:00,36.0,36.0,30.36,SSW,198,3.0,9.0,99,0.01,,,0.16,0.000000,,2013-02-23 08:21:00,
2013-02-23 03:32:00,36.0,36.0,30.36,SSW,198,3.0,9.0,99,0.01,,,0.16,0.000000,,2013-02-23 08:32:00,
2013-02-23 03:42:00,36.0,36.0,30.36,SSW,198,3.0,9.0,99,0.01,,,0.16,0.000000,,2013-02-23 08:42:00,
2013-02-23 04:11:00,36.0,36.0,30.32,NE,45,4.0,11.0,99,0.13,,,0.29,0.000000,,2013-02-23 09:11:00,
2013-02-23 04:22:00,36.0,36.0,30.32,NE,45,4.0,11.0,99,0.13,,,0.29,0.000000,,2013-02-23 09:22:00,
2013-02-23 04:32:00,36.0,36.0,30.32,NE,45,4.0,11.0,99,0.13,,,0.29,0.000000,,2013-02-23 09:32:00,
2013-02-23 04:42:00,36.0,36.0,30.32,NE,45,4.0,11.0,99,0.13,,,0.29,0.000000,,2013-02-23 09:42:00,
2013-02-23 05:11:00,36.0,36.0,30.32,North,5,4.0,10.0,99,0.01,,,0.30,0.000000,,2013-02-23 10:11:00,
2013-02-23 05:21:00,36.0,36.0,30.32,North,5,4.0,10.0,99,0.01,,,0.30,0.000000,,2013-02-23 10:21:00,
2013-02-23 05:32:00,36.0,36.0,30.32,North,5,4.0,10.0,99,0.01,,,0.30,0.000000,,2013-02-23 10:32:00,
2013-02-23 05:42:00,36.0,36.0,30.32,North,5,4.0,10.0,99,0.01,,,0.30,0.000000,,2013-02-23 10:42:00,
2013-02-23 06:11:00,38.0,38.0,30.32,NE,47,5.0,10.0,99,0.02,,,0.32,0.000000,,2013-02-23 11:11:00,
2013-02-23 06:22:00,38.0,38.0,30.32,NE,47,5.0,10.0,99,0.02,,,0.32,0.000000,,2013-02-23 11:22:00,
2013-02-23 06:32:00,38.0,38.0,30.32,NE,47,5.0,10.0,99,0.02,,,0.32,0.000000,,2013-02-23 11:32:00,
2013-02-23 06:42:00,38.0,38.0,30.32,NE,47,5.0,10.0,99,0.02,,,0.32,0.000000,,2013-02-23 11:42:00,
2013-02-23 07:11:00,37.0,37.0,30.31,NNE,19,4.0,15.0,99,0.05,,,0.37,0.000000,,2013-02-23 12:11:00,
2013-02-23 07:22:00,37.0,37.0,30.31,NNE,19,4.0,15.0,99,0.05,,,0.37,0.000000,,2013-02-23 12:22:00,
2013-02-23 07:32:00,37.0,37.0,30.31,NNE,19,4.0,15.0,99,0.05,,,0.37,0.000000,,2013-02-23 12:32:00,
2013-02-23 07:42:00,37.0,37.0,30.31,NNE,19,4.0,15.0,99,0.05,,,0.37,0.000000,,2013-02-23 12:42:00,
2013-02-23 08:12:00,39.0,39.0,30.30,SSW,206,4.0,10.0,99,0.07,,,0.43,4.000000,,2013-02-23 13:12:00,
2013-02-23 08:22:00,39.0,39.0,30.30,SSW,206,4.0,10.0,99,0.07,,,0.43,4.000000,,2013-02-23 13:22:00,
2013-02-23 08:32:00,39.0,39.0,30.30,SSW,206,4.0,10.0,99,0.07,,,0.43,4.000000,,2013-02-23 13:32:00,
2013-02-23 08:42:00,39.0,39.0,30.30,SSW,206,4.0,10.0,99,0.07,,,0.43,4.000000,,2013-02-23 13:42:00,
2013-02-23 09:11:00,40.0,40.0,30.30,NE,56,3.0,12.0,99,0.15,,,0.58,15.000000,,2013-02-23 14:11:00,
2013-02-23 09:22:00,40.0,40.0,30.30,NE,56,3.0,12.0,99,0.15,,,0.58,15.000000,,2013-02-23 14:22:00,
2013-02-23 09:32:00,40.0,40.0,30.30,NE,56,3.0,12.0,99,0.15,,,0.58,15.000000,,2013-02-23 14:32:00,
2013-02-23 09:42:00,40.0,40.0,30.30,NE,56,3.0,12.0,99,0.15,,,0.58,15.000000,,2013-02-23 14:42:00,
2013-02-23 10:11:00,40.0,39.0,30.27,NE,35,2.0,13.0,97,0.02,,,0.60,85.000000,,2013-02-23 15:11:00,
2013-02-23 10:22:00,40.0,39.0,30.27,NE,35,2.0,13.0,97,0.02,,,0.60,85.000000,,2013-02-23 15:22:00,
2013-02-23 10:32:00,40.0,39.0,30.27,NE,35,2.0,13.0,97,0.02,,,0.60,85.000000,,2013-02-23 15:32:00,
2013-02-23 10:42:00,40.0,39.0,30.27,NE,35,2.0,13.0,97,0.02,,,0.60,85.000000,,2013-02-23 15:42:00,
2013-02-23 11:11:00,41.0,40.0,30.25,NNE,32,4.0,10.0,97,0.00,,,0.60,95.000000,,2013-02-23 16:11:00,
2013-02-23 11:22:00,41.0,40.0,30.25,NNE,32,4.0,10.0,97,0.00,,,0.60,95.000000,,2013-02-23 16:22:00,
2013-02-23 11:32:00,41.0,40.0,30.25,NNE,32,4.0,10.0,97,0.00,,,0.60,95.000000,,2013-02-23 16:32:00,
2013-02-23 11:42:00,41.0,40.0,30.25,NNE,32,4.0,10.0,97,0.00,,,0.60,95.000000,,2013-02-23 16:42:00,
2013-02-23 12:11:00,42.0,41.0,30.27,North,349,3.0,12.0,95,0.00,,,0.60,105.000000,,2013-02-23 17:11:00,
2013-02-23 12:22:00,42.0,41.0,30.27,North,349,3.0,12.0,95,0.00,,,0.60,105.000000,,2013-02-23 17:22:00,
2013-02-23 12:32:00,42.0,41.0,30.27,North,349,3.0,12.0,95,0.00,,,0.60,105.000000,,2013-02-23 17:32:00,
2013-02-23 12:42:00,42.0,41.0,30.27,North,349,3.0,12.0,95,0.00,,,0.60,105.000000,,2013-02-23 17:42:00,
2013-02-23 13:12:00,44.0,43.0,30.24,North,3,4.0,9.0,96,0.00,,,-99.99,83.000000,,2013-02-23 18:12:00,
2013-02-23 13:22:00,44.0,43.0,30.24,North,3,4.0,9.0,96,0.00,,,-99.99,83.000000,,2013-02-23 18:22:00,
2013-02-23 13:32:00,44.0,43.0,30.24,North,3,4.0,9.0,96,0.00,,,-99.99,83.000000,,2013-02-23 18:32:00,
2013-02-23 13:42:00,44.0,43.0,30.24,North,3,4.0,9.0,96,0.00,,,-99.99,83.000000,,2013-02-23 18:42:00,
2013-02-23 14:11:00,45.0,44.0,30.23,NNW,347,3.0,9.0,95,0.01,,,0.58,97.000000,,2013-02-23 19:11:00,
2013-02-23 14:21:00,45.0,44.0,30.23,NNW,347,3.0,9.0,95,0.01,,,0.58,97.000000,,2013-02-23 19:21:00,
2013-02-23 14:32:00,45.0,44.0,30.23,NNW,347,3.0,9.0,95,0.01,,,0.58,97.000000,,2013-02-23 19:32:00,
2013-02-23 14:42:00,45.0,44.0,30.23,NNW,347,3.0,9.0,95,0.01,,,0.58,97.000000,,2013-02-23 19:42:00,
2013-02-23 15:11:00,46.0,45.0,30.20,West,271,2.0,9.0,95,0.01,,,0.58,141.000000,,2013-02-23 20:11:00,
2013-02-23 15:22:00,46.0,45.0,30.20,West,271,2.0,9.0,95,0.01,,,0.58,141.000000,,2013-02-23 20:22:00,
2013-02-23 15:32:00,46.0,45.0,30.20,West,271,2.0,9.0,95,0.01,,,0.58,141.000000,,2013-02-23 20:32:00,
2013-02-23 15:42:00,46.0,45.0,30.20,West,271,2.0,9.0,95,0.01,,,0.58,141.000000,,2013-02-23 20:42:00,
2013-02-23 16:11:00,46.0,45.0,30.17,North,9,2.0,7.0,96,0.00,,,0.58,81.000000,,2013-02-23 21:11:00,
2013-02-23 16:22:00,46.0,45.0,30.17,North,9,2.0,7.0,96,0.00,,,0.58,81.000000,,2013-02-23 21:22:00,
2013-02-23 16:32:00,46.0,45.0,30.17,North,9,2.0,7.0,96,0.00,,,0.58,81.000000,,2013-02-23 21:32:00,
2013-02-23 16:42:00,46.0,45.0,30.17,North,9,2.0,7.0,96,0.00,,,0.58,81.000000,,2013-02-23 21:42:00,
2013-02-23 17:11:00,45.0,44.0,30.20,North,9,5.0,12.0,96,0.00,,,0.55,39.000000,,2013-02-23 22:11:00,
2013-02-23 17:22:00,45.0,44.0,30.20,North,9,5.0,12.0,96,0.00,,,0.55,39.000000,,2013-02-23 22:22:00,
2013-02-23 17:32:00,45.0,44.0,30.20,North,9,5.0,12.0,96,0.00,,,0.55,39.000000,,2013-02-23 22:32:00,
2013-02-23 17:42:00,45.0,44.0,30.20,North,9,5.0,12.0,96,0.00,,,0.55,39.000000,,2013-02-23 22:42:00,
2013-02-23 18:11:00,43.0,42.0,30.17,NNE,26,3.0,15.0,97,0.00,,,0.53,16.000000,,2013-02-23 23:11:00,
2013-02-23 18:22:00,43.0,42.0,30.17,NNE,26,3.0,15.0,97,0.00,,,0.53,16.000000,,2013-02-23 23:22:00,
2013-02-23 18:32:00,43.0,42.0,30.17,NNE,26,3.0,15.0,97,0.00,,,0.53,16.000000,,2013-02-23 23:32:00,
2013-02-23 18:42:00,43.0,42.0,30.17,NNE,26,3.0,15.0,97,0.00,,,0.53,16.000000,,2013-02-23 23:42:00,
2013-02-23 19:11:00,44.0,43.0,30.17,ESE,102,2.0,10.0,98,0.00,,,0.51,1.000000,,2013-02-24 00:11:00,
2013-02-23 19:22:00,44.0,43.0,30.17,ESE,102,2.0,10.0,98,0.00,,,0.51,1.000000,,2013-02-24 00:22:00,
2013-02-23 19:32:00,44.0,43.0,30.17,ESE,102,2.0,10.0,98,0.00,,,0.51,1.000000,,2013-02-24 00:32:00,
2013-02-23 19:42:00,44.0,43.0,30.17,ESE,102,2.0,10.0,98,0.00,,,0.51,1.000000,,2013-02-24 00:42:00,
2013-02-23 20:11:00,44.0,43.0,30.19,SW,235,3.0,7.0,98,0.00,,,0.50,0.000000,,2013-02-24 01:11:00,
2013-02-23 20:22:00,44.0,43.0,30.19,SW,235,3.0,7.0,98,0.00,,,0.50,0.000000,,2013-02-24 01:22:00,
2013-02-23 20:32:00,44.0,43.0,30.19,SW,235,3.0,7.0,98,0.00,,,0.50,0.000000,,2013-02-24 01:32:00,
2013-02-23 20:42:00,44.0,43.0,30.19,SW,235,3.0,7.0,98,0.00,,,0.50,0.000000,,2013-02-24 01:42:00,
2013-02-23 21:11:00,44.0,44.0,30.19,South,187,2.0,5.0,99,0.00,,,0.50,0.000000,,2013-02-24 02:11:00,
2013-02-23 21:22:00,44.0,44.0,30.19,South,187,2.0,5.0,99,0.00,,,0.50,0.000000,,2013-02-24 02:22:00,
2013-02-23 21:32:00,44.0,44.0,30.19,South,187,2.0,5.0,99,0.00,,,0.50,0.000000,,2013-02-24 02:32:00,
2013-02-23 21:42:00,44.0,44.0,30.19,South,187,2.0,5.0,99,0.00,,,0.50,0.000000,,2013-02-24 02:42:00,
2013-02-23 22:12:00,44.0,44.0,30.18,SSE,154,2.0,7.0,99,0.00,,,0.50,0.000000,,2013-02-24 03:12:00,
2013-02-23 22:22:00,44.0,44.0,30.18,SSE,154,2.0,7.0,99,0.00,,,0.50,0.000000,,2013-02-24 03:22:00,
2013-02-23 22:32:00,44.0,44.0,30.18,SSE,154,2.0,7.0,99,0.00,,,0.50,0.000000,,2013-02-24 03:32:00,
2013-02-23 22:42:00,44.0,44.0,30.18,SSE,154,2.0,7.0,99,0.00,,,0.50,0.000000,,2013-02-24 03:42:00,
2013-02-23 23:11:00,42.0,42.0,30.17,SW,234,4.0,9.0,99,0.00,,,0.49,0.000000,,2013-02-24 04:11:00,
2013-02-23 23:22:00,42.0,42.0,30.17,SW,234,4.0,9.0,99,0.00,,,0.49,0.000000,,2013-02-24 04:22:00,
2013-02-23 23:32:00,42.0,42.0,30.17,SW,234,4.0,9.0,99,0.00,,,0.49,0.000000,,2013-02-24 04:32:00,
2013-02-23 23:42:00,42.0,42.0,30.17,SW,234,4.0,9.0,99,0.00,,,0.49,0.000000,,2013-02-24 04:42:00,